Location: Coche
(10.4506°N, 66.9257°W)
Time: 06:01:49
(UTC+00:00)

YAOGAN 1 - Pass Details

Date: 11 July 2022
Orbit: 617 x 619 km, 97.9° (Epoch: 12 August)

Event Time Altitude Azimuth Distance (km) Brightness Sun altitude
Exits shadow 00:20:15 - 193° (SSW) 2,875 5.8 -20.0°
Reaches altitude 10° 00:22:46 10° 208° (SSW) 1,978 5.1 -20.5°
Maximum altitude 00:26:09 23° 260° (W) 1,330 4.8 -21.3°
Drops below altitude 10° 00:29:33 10° 312° (NW) 1,978 6.2 -22.0°
Sets 00:32:07 0° 327° (NNW) 2,883 7.0 -22.5°
